www.pogodaiklimat.ru

Погода и климат >> Архив погоды >> Иран >> Abadan


ПОГОДА в Abadan

  • Прогноз погоды в Abadan
  • Монитор погоды в Abadan
  • Климат города

АРХИВ ПОГОДЫ в Abadan

Время (UTC), дата Ветер
(напр.,м/с)
 
Видим.   Явления Облачность Т
(С)
Тd
(С)
f
(%)
Тe
(С)
Тes
(С)
Комфортность P
(гПа)
Po
(гПа)
Тmin
(С)
Tmax
(С)
R
(мм)
R24
(мм)
S
(см)
09 13.06 С 3 10 км ясно +41.9 +8.9 14 +40 +58 опасность
солнечного
удара
999.5 998.7
12 13.06 СЗ 5 10 км ясно +43.4 +5.2 10 +41 +47 опасность
перегрева
997.8 997.0
15 13.06 С 4 10 км ясно +42.0 +6.8 12 +39 +40 очень
жарко
997.1 996.4 +43.9
18 13.06 ЮЗ 2 10 км ясно +35.9 +10.2 21 +35 +35 очень
жарко
997.9 997.2
21 13.06 З 2 10 км ясно +32.7 +12.9 30 +33 +33 жарко 998.0 997.2
00 14.06 ЮЗ 3 10 км ясно +32.2 +9.1 24 +31 +31 жарко 998.0 997.2
03 14.06 СЗ 2 7000 м мгла ясно +30.8 +9.1 26 +30 +31 жарко 999.0 998.2 +30.2
06 14.06 СЗ 6 8000 м мгла ясно +38.5 +10.0 18 +37 +43 очень
жарко
1000.9 1000.1
09 14.06 СЗ 6 10 км ясно +43.6 +3.8 9 +40 +49 очень
жарко
1000.7 1000.0
12 14.06 СЗ 6 10 км ясно +44.5 +4.5 9 +41 +46 опасность
перегрева
1000.0 999.2
15 14.06 СЗ 5 10 км ясно +42.3 +10.3 15 +41 +41 опасность
перегрева
999.6 998.9 +44.8
18 14.06 СЗ 4 10 км ясно +38.8 +10.2 18 +37 +37 очень
жарко
1000.8 1000.1
21 14.06 С 5 10 км ясно +36.4 +13.8 26 +37 +37 очень
жарко
1000.4 1000.0
00 15.06 С 5 10 км ясно +33.6 +10.9 25 +33 +33 жарко 1000.1 999.3
03 15.06 З 2 10 км ясно +30.6 +12.0 32 +31 +33 жарко 1001.4 1000.7 +30.6
06 15.06 СЗ 4 7000 м пыль ясно +38.1 +11.2 20 +37 +47 очень
жарко
1003.1 1002.4
09 15.06 СЗ 5 10 км ясно +42.5 +10.4 15 +41 +53 опасность
перегрева
1002.5 1001.7
12 15.06 СЗ 8 10 км ясно +43.3 +8.9 13 +41 +44 опасность
перегрева
1001.6 1000.8
15 15.06 З 7 10 км ясно +41.3 +11.4 17 +40 +41 очень
жарко
1000.9 1000.2 +43.8
18 15.06 СЗ 4 10 км ясно +35.8 +12.7 25 +36 +36 очень
жарко
1002.3 1001.6
21 15.06 СЗ 5 10 км ясно +33.4 +11.3 26 +33 +33 жарко 1002.3 1001.9
00 16.06 З 3 10 км ясно +30.6 +11.1 30 +31 +31 жарко 1001.9 1001.1
03 16.06 З 2 7000 м мгла ясно +30.0 +9.5 28 +30 +31 жарко 1002.4 1001.7 +28.6
06 16.06 СЗ 7 10 км ясно +38.7 +10.1 18 +37 +41 очень
жарко
1003.1 1002.4
09 16.06 СЗ 8 10 км ясно +42.8 +3.2 9 +40 +44 очень
жарко
1002.4 1001.6
12 16.06 З 6 10 км ясно +43.5 +2.1 8 +40 +45 очень
жарко
1001.3 1000.5
15 16.06 З 7 10 км ясно +41.6 +7.6 13 +39 +39 очень
жарко
1000.6 999.8 +43.9
18 16.06 СЗ 5 10 км ясно +35.5 +11.8 24 +35 +35 очень
жарко
1001.6 1000.9
21 16.06 СЗ 5 10 км ясно +32.9 +12.0 28 +33 +33 жарко 1001.3 1001.1
00 17.06 СЗ 6 10 км ясно +31.3 +11.7 30 +32 +32 жарко 1000.7 1000.0
03 17.06 СЗ 8 10 км ясно +31.7 +9.3 25 +31 +31 жарко 1000.8 1000.0 +30.9
06 17.06 СЗ 10 6000 м пыль ясно +38.0 +9.6 18 +36 +37 очень
жарко
1001.2 1000.4
09 17.06 С 7 10 км ясно +42.5 +7.1 12 +40 +46 очень
жарко
1000.0 999.2
12 17.06 С 9 10 км ясно +45.0 +6.4 10 +42 +44 опасность
перегрева
998.4 997.6
15 17.06 СЗ 11 6000 м пыльный позёмок ясно +43.0 +1.9 8 +39 +39 очень
жарко
998.0 997.2 +45.5
18 17.06 СЗ 9 10 км ясно +38.2 +9.7 18 +37 +37 очень
жарко
999.0 998.2
21 17.06 СЗ 9 10 км ясно +35.3 +10.4 22 +34 +34 очень
жарко
998.5 997.7
00 18.06 СЗ 9 10 км ясно +34.6 +9.1 21 +33 +33 жарко 997.9 997.1
03 18.06 СЗ 10 10 км ясно +34.1 +8.7 21 +33 +33 жарко 999.0 998.2 +33.2
06 18.06 СЗ 8 7000 м пыльный позёмок ясно +40.9 +9.2 15 +39 +42 очень
жарко
999.9 999.2
09 18.06 С 8 8000 м пыльный позёмок ясно +44.8 +8.9 12 +43 +47 опасность
перегрева
999.6 998.9
12 18.06 СЗ 11 7000 м пыльный позёмок ясно +45.7 +9.6 12 +44 +44 опасность
перегрева
998.7 997.9
15 18.06 СЗ 8 10 км ясно +43.4 +9.0 13 +42 +42 опасность
перегрева
998.8 998.0 +46.2
18 18.06 СЗ 6 10 км ясно +37.6 +10.8 20 +37 +37 очень
жарко
1000.1 999.4
21 18.06 СЗ 5 10 км ясно +34.4 +12.1 26 +34 +34 очень
жарко
1000.5 999.3
00 19.06 СЗ 8 10 км ясно +33.7 +9.7 23 +33 +33 жарко 1000.7 999.9
03 19.06 СЗ 7 10 км ясно +33.0 +7.8 21 +31 +32 жарко 1001.6 1000.8 +32.4
06 19.06 С 11 10 км ясно +39.1 +7.8 15 +37 +37 очень
жарко
1002.7 1001.9
09 19.06 С 9 10 км ясно +43.3 +8.9 13 +41 +44 опасность
перегрева
1002.8 1002.0
12 19.06 С 12 10 км ясно +44.0 +8.3 12 +42 +42 опасность
перегрева
1002.1 1001.4
15 19.06 СЗ 9 10 км ясно +42.3 +7.0 12 +40 +40 очень
жарко
1001.9 1001.2 +44.2
18 19.06 З 5 10 км ясно +35.6 +8.4 19 +34 +34 очень
жарко
1003.4 1002.6
21 19.06 З 6 10 км ясно +34.2 +10.1 23 +33 +33 жарко 1002.2
00 20.06 СЗ 6 10 км ясно +32.6 +10.0 25 +32 +32 жарко 1002.1 1001.4
03 20.06 СЗ 8 10 км ясно +33.3 +9.4 23 +32 +32 жарко 1002.8 1002.1 +32.2
06 20.06 СЗ 12 10 км ясно +39.8 +8.3 15 +38 +38 очень
жарко
1003.4 1002.6

 

Местоположение метеостанции Abadan (Иран): широта 30.37 долгота 48.25 высота над уровнем моря 6 м.

В архиве по умолчанию представлена погода в Abadan за последнюю неделю. Архивные данные за месяц целиком и за предыдущие месяцы, начиная с января 2011 года, Вы можете получить, выбрав интересующий диапазон дат из раскрывающегося списка и нажав кнопку "Ввод!".


*Определитесь, кто Вы:
робот инопланетянин человек

Внимание! Время в таблицах - всемирное. Для получения местного времени необходимо прибавить поправку, которая в Abadan равна 3.5 ч.

Смотрите также архив погоды в соседних городах и на ближайших метеорологических станциях:

Погода в Basrah Airport (Ирак) (48 км)
Погода в Fao (Ирак) (50 км)
Погода в Basrah (Ирак) (50 км)
Погода в Abdaly (Кувейт) (62 км)
Погода в Bubiyan (Кувейт) (68 км)
Погода в Sabriyah (Кувейт) (79 км)
Погода в Failaka Island (Кувейт) (100 км)
Погода в Mitribah (Кувейт) (104 км)
Погода в Jal Aliyah (Кувейт) (106 км)
Погода в Ahwaz (Иран) (114 км)

Пояснения к столбцам:

Ветер - указаны скорость ветра в м/с - средняя за 10 мин, порывы в срок и между сроками (в фигурных скобках) и направление, откуда дует ветер: С - северный, СВ - северо-восточный, В - восточный, ЮВ - юго-восточный, Ю - южный, ЮЗ - юго-западный, З - западный, СЗ - северо-западный.
Видимость - горизонтальная дальность видимости в метрах или километрах. При видимости от 1 до 10 км при отсутствии осадков обычно наблюдается дымка, при ухудшении видимости до 1 км и менее - туман. В сухую погоду видимость может ухудшаться дымом, пылью или мглою.
Явления - указаны атмосферные явления, наблюдавшиеся в срок или в последний час перед сроком; фигурными скобками обозначены явления, наблюдавшиеся между сроками (за 1-3 часа до срока); квадратными скобками обозначены град или гололедные отложения с указанием их диаметра в мм.
Облачность - указаны через наклонную черту общая и нижняя облачность в баллах и высота нижней границы облаков в метрах; квадратными скобками обозначены формы облаков: Ci - перистые, Cs - перисто-слоистые, Cc - перисто-кучевые, Ac - высококучевые, As - высокослоистые, Sc - слоисто-кучевые, Ns - слоисто-дождевые, Cu - кучевые, Cb - кучево-дождевые. Подробнее классификацию облаков см. в Атласе облаков (PDF).
T - Температура воздуха - температура, измеренная на высоте 2 м над землей.
Td - Температура точки росы - температура, при понижении до которой содержащийся в воздухе водяной пар достигнет насыщения.
f - Относительная влажность воздуха - влажноcть воздуха, измеренная на высоте 2 м над землей.
Te - Эффективная температура - температура, которую ощущает одетый по сезону человек в тени. Характеристика душности погоды. При расчете учитывается влияние влажности воздуха и скорости ветра на теплоощущения человека.
Tes - Эффективная температура на солнце - температура, которую ощущает человек, с поправкой на солнечный нагрев. Характеристика знойности погоды. Зависит от высоты солнца над горизонтом, облачности и скорости ветра. Ночью, в пасмурную погоду, а также при ветре 12 м/с и более поправка равна нулю.
P - Атмосферное давление - приведенное к уровню моря атмосферное давление.
Po - Атмосферное давление - измеренное на уровне метеостанции атмосферное давление.
Tmin - Минимальная температура - минимум температуры воздуха на высоте 2 м над землей.
Tmax - Максимальная температура - максимум температуры воздуха на высоте 2 м над землей.
R - Количество осадков - Количество выпавших осадков за период времени, мм. При наведении курсора мыши на число - период времени, за который выпало указанное количество осадков.
R24 - Количество осадков - Количество выпавших осадков за 24 часа, мм.
S - Снежный покров - Высота снежного покрова, см. При наведении курсора мыши на число - состояние снежного покрова и степень покрытия местности в баллах.